Regional Weather Roundup
Issued by NWS Upton, NY

Current Version | Previous Version | Graphics & Text | Print | Product List | Glossary Off
Versions: 1 2 3 4 5 6 7 8 9 10 11 12 13 14 15 16 17 18 19 20 21 22 23 24 25 26 27 28 29 30

000
ASUS41 KOKX 172308
RWROKX

Regional Weather Roundup
National Weather Service New York NY
600 PM EST SUN DEC 17 2017

Note: "FAIR" indicates few or no clouds below 12,000 feet with no
significant weather and/or obstructions to visibility.

NYZ071-072-176-178-NJZ106-104-180000-
New York City Metro Area

CITY           SKY/WX    TMP DP  RH WIND       PRES   REMARKS
Central Park   CLOUDY    35  25  66 VRB3      30.27R
Bronx Bot Gard   N/A     34  25  69 N2        30.28R
Bronx Lehman C   N/A     34  27  75 E5          N/A  WCI  30
LaGuardia Arpt MOCLDY    36  25  64 NE7       30.25R WCI  30
Queens College   N/A     36  27  69 E2          N/A
Kennedy Intl   MOCLDY    34  26  72 E3        30.27R
Breezy Point     N/A     36 N/A N/A NE2         N/A
Brooklyn Coll    N/A     36  27  69 E5          N/A  WCI  32
Staten Island    N/A     36  30  80 SE1         N/A
Newark/Liberty CLOUDY    38  26  62 CALM      30.25R
Teterboro      CLOUDY    36  24  62 NE6       30.25R WCI  31
$$

NYZ177-179-078>081-180000-
Long Island New York

CITY           SKY/WX    TMP DP  RH WIND       PRES   REMARKS
Jones Beach      N/A     34 N/A N/A E5          N/A  WCI  30
Wantagh          N/A     32  25  74 NE2         N/A
Matinecock Pt    N/A     34 N/A N/A E6          N/A  WCI  29
Farmingdale    CLOUDY    32  24  72 CALM      30.26R
MacArthur/ISP  CLOUDY    31  24  75 CALM      30.25S
Shirley        CLOUDY    31  23  72 CALM      30.27R
Mt Sinai Harb    N/A    N/A N/A N/A NW2         N/A
Westhampton    CLOUDY    27  19  72 CALM      30.28R
East Hampton   FAIR      27  19  69 CALM      30.27R
Southold         N/A     28  21  74 S2          N/A
Montauk          N/A     34  12  40 NW7       30.27R WCI  28
$$

NYZ052-065-067-180000-
Hudson Valley

CITY           SKY/WX    TMP DP  RH WIND       PRES   REMARKS
White Plains   PTCLDY    30  20  66 CALM      30.23R
Larchmont Harb   N/A     34 N/A N/A NE7         N/A  WCI  28
Croton On Huds   N/A     32 N/A N/A E1          N/A
Somers           N/A     30  19  64 SE1         N/A
Brewster         N/A     28  16  59 N3          N/A
Newburgh       CLOUDY    28  19  69 VRB6      30.25R WCI  22
Montgomery     CLOUDY    28  19  69 N6        30.24R WCI  22
Otisville        N/A     28  19  69 NE1         N/A
Warwick          N/A     30  25  80 CALM        N/A
Suffern          N/A     32  23  69 CALM        N/A
Poughkeepsie   PTCLDY    28  16  60 N3        30.26R
Albany         CLOUDY    24  10  55 NW6       30.27R WCI  17
$$

NJZ001-105-106-008-010-013-015-019>022-104-180000-
New Jersey

CITY           SKY/WX    TMP DP  RH WIND       PRES   REMARKS
Newark/Liberty CLOUDY    38  26  62 CALM      30.25R
Teterboro      CLOUDY    36  24  62 NE6       30.25R WCI  31
Caldwell       CLOUDY    34  25  69 CALM      30.25R
Somerville     PTCLDY    33  28  81 CALM      30.23R
Linden         MOCLDY    37  27  67 CALM      30.26R
Perth Amboy      N/A     36 N/A N/A E6          N/A  WCI  31
Sussex         CLOUDY    29  22  75 CALM      30.24R
Andover        NOT AVBL
Trenton        CLOUDY    38  28  67 CALM      30.23R
Millville      CLOUDY    38  34  85 CALM      30.22R
Atlantic City  CLOUDY    42  36  79 CALM      30.23R
Wrightstown    CLOUDY    38  32  80 E3        30.21R
Toms River     CLOUDY    35  32  88 N3        30.24R
Belmar         CLOUDY    36  31  82 N3          N/A
$$

PAZ047>061-062-071-180000-
Eastern Pennsylvania

CITY           SKY/WX    TMP DP  RH WIND       PRES   REMARKS
Philadelphia   CLOUDY    41  29  62 NE5       30.24R
Allentown      CLOUDY    35  25  66 E5        30.22R WCI  31
Scranton       CLOUDY    31  24  75 CALM      30.18R
$$

CTZ002-004>006-009-010-012-RIZ004-006-007-MAZ004-011-015-180000-
Southern New England

 In CT

CITY           SKY/WX    TMP DP  RH WIND       PRES   REMARKS
Bradley Intl   CLOUDY    26  10  50 W5        30.26R WCI  20
Hartford       MOCLDY    27  15  61 CALM      30.27R
Danbury        PTCLDY    28  18  66 CALM      30.25R
Wtrbury/Oxford CLOUDY    26  11  52 CALM      30.23R
Norwalk Harbor   N/A    N/A N/A N/A N5          N/A
Bridgeport     CLOUDY    32  18  56 N3        30.26S
Meriden        PTCLDY    27  16  63 CALM      30.26R
New Haven      PTCLDY    32  13  45 CALM      30.26R
Chester        FAIR      28   9  43 CALM      30.25R
Groton         PTCLDY    28  12  51 N3        30.27R
Willimantic    CLOUDY    27  13  55 CALM      30.27R

 In RI

CITY           SKY/WX    TMP DP  RH WIND       PRES   REMARKS
Providence     CLOUDY    28   7  41 W5        30.26S WCI  23
Block Island   MOCLDY    30  13  49 NW9       30.26S WCI  22
Westerly       CLOUDY    29  11  47 N5        30.27S WCI  24

In MA

CITY           SKY/WX    TMP DP  RH WIND       PRES   REMARKS
Boston         NOT AVBL
Worcester      PTCLDY    23   1  38 CALM      30.19R
Westfield      MOCLDY    26   5  40 W5        30.25R WCI  20
Provincetown   CLOUDY    30  11  45 NW15G21   30.25R WCI  19
Nantucket      CLOUDY    24  14  65 CALM      30.25R
$$

ANZ330-335-338-340-345-350-353-355-180000-
Coastal Marine Observations


STATION/POSITION TIME  SKY/WX   TEMP    WIND        PRES    VSBY  WAVE
                                AIR SEA DIR/SP/G                  HT/PER
                 (UTC)          (F)     (DEG/KT/KT) (MB)    (MI)  (FT/S)
NY Harb Entrance 2150            38 50   70/  8/ 10 1023.6          1/ 8
20 S Fire Island 2150            37 50   50/  6/  8 1024.3          2/ 8
15 E Barnegat Li 2230               49                N/A           2/ 8
Hudson Canyon    2150            44 54   90/  6/  8 1023.6          2/ 6
Kings Point      2224            34 42  100/  2/  5 1025.4
Execution Rocks  2230            35      90/  4/  6   N/A
Western LI Sound NOT AVBL
Central LI Sound NOT AVBL
Robbins Reef     2224            38     150/  5/  6 1024.8
$$


>>>>>>>>>>>>>>>>>>>>>>>>>>>> KEY <<<<<<<<<<<<<<<<<<<<<<<<<<<
>                                                          <
>     SKY/WX - Sky Condition/Present Weather               <
>     TMP    - Temperature in Fahrenheit                   <
>     DP     - Dew Point in Fahrenheit                     <
>     RH     - Relative Humidity in Percent                <
>     WIND   - Direction (from) and Speed in MPH           <
>     PRES   - Mean Sea Level Pressure (inches of Hg)      <
>     WCI    - Wind Chill Index                            <
>     VSB    - Visibility in Miles                         <
>     HX     - Heat Index                                  <
>     TC     - Temperature in Celsius                      <
>     VRB    - Varibale Wind Direction                     <
>                                                          <
>>>>>>>>>>>>>>>>>>>>>>>>>>>> KEY <<<<<<<<<<<<<<<<<<<<<<<<<<<




USA.gov is the U.S. government's official web portal to all federal, state and local government web resources and services.